Regional Weather Roundup
Issued by NWS Cleveland, OH

Current Version | Previous Version | Text Only | Print | Product List | Glossary On
Versions: 1 2 3 4 5 6 7 8 9 10 11 12 13 14 15 16 17 18 19 20 21 22 23 24 25 26 27 28 29 30 31 32 33 34 35 36 37 38 39 40 41 42 43 44 45 46 47 48 49 50
000 ASUS41 KCLE 231510 RWRCLE OHIO REGIONAL WEATHER ROUNDUP NATIONAL WEATHER SERVICE CLEVELAND, OH 1100 AM EDT THU OCT 23 2014 NOTE: "FAIR" INDICATES FEW OR NO CLOUDS BELOW 12,000 FEET WITH NO SIGNIFICANT WEATHER AND/OR OBSTRUCTIONS TO VISIBILITY. OHZ001>008-015>018-024>027-034-035-043-044-231600- NORTHWEST OHIO CITY SKY/WX TMP DP RH WIND PRES REMARKS DEFIANCE MOSUNNY 46 42 86 CALM 30.27S FINDLAY FOG 42 40 92 CALM 30.26R VSB 1/4 TOLEDO EXPRESS CLOUDY 45 40 82 W3 30.26S TOLEDO EXEC SUNNY 49 39 68 CALM 30.26S LIMA SUNNY 45 41 86 W5 30.26R $$ OHZ009>014-019>023-028>033-038-089-231600- NORTHEAST OHIO CITY SKY/WX TMP DP RH WIND PRES REMARKS CLE-HOPKINS PTSUNNY 54 47 77 N8 30.23S CLE-LAKEFRONT PTSUNNY 54 46 74 N8 30.21S CUY CO. ARPT PTSUNNY 54 48 82 N12 30.21R LORAIN-ELYRIA PTSUNNY 52 44 74 NW9 30.23S ASHTABULA SUNNY 54 43 66 N10 30.18F AKRON-CANTON PTSUNNY 52 45 77 N10 30.19S WOOSTER PTSUNNY 52 44 74 NW10 30.22S MANSFIELD PTSUNNY 46 41 82 VRB6 30.24R YOUNGSTOWN MOSUNNY 52 44 74 NW15 30.16S $$ OHZ042-051>053-060>062-070>072-077>081-231600- SOUTHWEST OHIO CITY SKY/WX TMP DP RH WIND PRES REMARKS CINC-COVINGTON MOSUNNY 52 40 63 N3 30.26R CINC-LUNKEN SUNNY 50 42 74 E3 30.27F HAMILTON SUNNY 51 42 71 NE3 30.28R DAYTON MOSUNNY 51 42 71 N3 30.27S WRIGHT-PAT AFB SUNNY 48 41 76 NE2 30.26S DAYTON GENERAL SUNNY 51 42 71 CALM 30.25S WILMINGTON SUNNY 51 40 65 N7 30.25S $$ OHZ036-037-039>041-045>050-054>059-063>069-073>076-082>088-231600- CENTRAL AND SOUTHEAST OHIO CITY SKY/WX TMP DP RH WIND PRES REMARKS COLUMBUS MOSUNNY 47 41 80 NW7 30.25S OSU AIRPORT CLOUDY 44 41 89 N6 30.26S FOG BOLTON FIELD SUNNY 48 43 81 W6 30.26R RICKENBACK AFB SUNNY 46 42 84 N5 30.25F NEWARK CLOUDY 48 42 80 NW5 30.24S MARION FOG 42 41 96 N5 30.27R VSB 1/4 LANCASTER PTSUNNY 48 42 80 NW5 30.25S ZANESVILLE PTSUNNY 50 42 74 NW12 30.23R NEW PHILLY CLOUDY 50 44 80 NW7 30.21S $$

USA.gov is the U.S. government's official web portal to all federal, state and local government web resources and services.